Location: Newark
(18.1281°S, 69.1289°W)
Time: 06:12:26
(UTC+00:00)

N. Korean satellite - Visible Passes

Search period start: 07 December 2019 00:00
Search period end: 17 December 2019 00:00
Orbit: 456 x 506 km, 97.2° (Epoch: 06 December)

Date Brightness Start Highest point End Pass type
(mag) Time Alt. Az. Time Alt. Az. Time Alt. Az.
08 Dec 9.6 09:20:01 10° NE 09:22:36 20° ESE 09:25:13 10° SSE visible
12 Dec 9.8 09:12:10 10° ENE 09:14:15 15° ESE 09:16:21 10° SE visible
15 Dec 8.9 09:28:12 10° NE 09:31:11 28° ESE 09:34:12 10° SSE visible
16 Dec 10.1 09:04:40 10° E 09:05:54 12° ESE 09:07:08 10° SE visible
